COSMOS 2251 DEB, 33917

Orbit data source: Space-Track

COSMOS 2251 DEB, 33917 is space debris in LEO originally from a launch on Wed, 16 Jun 1993 UTC launched from the Plesetsk Missile And Space Complex (PKMTR). The debris from Iridium 33, an American commercial communications satellite, has been tracked extensively since its accidental collision with the defunct Russian satellite Cosmos 2251 in 2009. This event, occurring at high speed in low Earth orbit (LEO), generated thousands of pieces of space debris, significantly increasing the risk of further collisions. The Iridium 33 debris cloud has impacted space traffic management and orbital debris mitigation strategies, making it a subject of ongoing study in space situational awareness.

Loading next visibility...
Identifier
33917, 1993-036DW
Orbit
LEO
Country
Flag of CISCIS
Related business
Manufacturer
Unknown
Mission
Spacecraft
Bus & Motor
Unknown
Mass
Unknown
Launch date (UTC)
1993-06-16 (33 years ago)
Launch vehicle
Unknown
Launch site
Plesetsk Missile And Space Complex (PKMTR)
Object type
Payload
Rocket body
Debris
Shape & HBR
Unknown shape, 0.1 m
Radar Cross Section
Small (<0.1 m²)

Expand to show TLE details & history
Last TLE update: 8 hours ago

TLE from 8 hours ago
0 COSMOS 2251 DEB
1 33917U 93036DW  26124.07707005  .00000842  00000-0  67365-3 0  9999
2 33917  74.1057 248.9271 0330934 316.4706  41.0716 13.69747008856824
Epoch: 2026-05-04T01:50Z
TLE epoch observation values (Epoch: 2026-05-04T01:50:58.852Z)
Latitude
-0.00005°
Longitude
-0.78958°
Altitude
822.527 km
Speed
7.532 km/s
True Right ascension
16h 35m 42s
True Declination
0° 00' 00"
Sunlit
Object was in full shadow at epoch
Visualization orbit readout
Latitude
Unknown
Longitude
Unknown
Altitude
Unknown
Speed
Unknown
Apparent Right ascension
Unknown
Apparent Declination
Unknown
Sunlit
N/A
Visualization observer readout
Local Sidereal Time
17:36:39
Azimuth
Unknown
Elevation
Unknown
Doppler factor
Unknown
Orbital elements
Apogee altitude
1,242.275 km
Perigee altitude
754.061 km
Semi-major axis
7,376.305 km
Eccentricity
0.03309
Inclination
74.1057°
RAAN
248.9271°
Arg. of periapsis
316.4706°
True anomaly
43.64232°
Mean anomaly
41.0716°
Eccentric anomaly
42.3489°
Mean motion
3.42598 °/min
Orbital period
105.08 mins
BSTAR
0.00067365
Loading maneuver chart data...
Computing Atmospheric mass density...

Documentation

Showing up to 5 results
|